ZL1CTS-13 Weather Reports


time (UTC)temp
C
wind
direction
speed
KPH
gust
KPH
rain 1hr
cm
rain 24hr
cm
rain mn
cm
humidity
%
barometer
mb
20260506051004 23 90 0.0 0.0 0.00 0.00 0.00 70 1017.7
20260506045003 24 45 0.0 1.6 0.00 0.00 0.00 69 1017.6
20260506044004 23 315 0.0 4.8 0.00 0.00 0.00 69 1017.7
20260506043004 23 0 1.6 3.2 0.00 0.00 0.00 70 1017.9
20260506042004 22 0 1.6 8.0 0.00 0.00 0.00 70 1017.8
20260506041004 22 282 3.2 8.0 0.00 0.00 0.00 70 1017.8
20260506040004 23 315 1.6 9.7 0.00 0.00 0.00 72 1017.7
20260506035004 22 334 3.2 8.0 0.00 0.00 0.00 70 1017.9
20260506034004 23 328 3.2 11.3 0.00 0.00 0.00 70 1017.9
20260506033005 23 315 3.2 12.9 0.00 0.00 0.00 70 1017.9
20260506032004 22 308 3.2 9.7 0.00 0.00 0.00 69 1017.9
20260506031004 23 0 4.8 11.3 0.00 0.00 0.00 72 1017.9
20260506030004 22 339 6.4 12.9 0.00 0.00 0.00 70 1017.9
20260506025004 22 344 4.8 9.7 0.00 0.00 0.00 69 1017.8
20260506024004 22 18 3.2 12.9 0.00 0.00 0.00 70 1017.7
20260506023004 22 300 4.8 16.1 0.00 0.00 0.00 69 1018.0
20260506022004 22 18 4.8 16.1 0.00 0.00 0.00 69 1017.9
20260506021004 23 11 4.8 11.3 0.00 0.00 0.00 70 1017.9
20260506020004 23 0 3.2 11.3 0.00 0.00 0.00 71 1017.9
20260506015003 22 285 4.8 11.3 0.00 0.00 0.00 70 1018.0
20260506014006 22 271 4.8 14.5 0.00 0.00 0.00 71 1018.1
20260506013004 22 306 4.8 14.5 0.00 0.00 0.00 70 1018.1
20260506012004 22 332 6.4 12.9 0.00 0.00 0.00 70 1018.2
20260506011004 23 31 4.8 14.5 0.00 0.00 0.00 69 1018.3
20260506010004 23 40 3.2 12.9 0.00 0.00 0.00 71 1018.4
20260506005003 21 323 8.0 19.3 0.00 0.00 0.00 71 1018.4
20260506004004 22 0 6.4 19.3 0.00 0.00 0.00 68 1018.5
20260506003004 23 336 8.0 16.1 0.00 0.00 0.00 67 1018.5
20260506002004 23 0 3.2 12.9 0.00 0.00 0.00 67 1018.5
20260506001003 22 45 3.2 14.5 0.00 0.00 0.00 71 1018.8
20260506000004 21 255 8.0 14.5 0.00 0.00 0.00 70 1018.9
20260505235004 22 314 6.4 16.1 0.00 0.00 0.00 68 1018.8
20260505234004 21 11 4.8 19.3 0.00 0.00 0.00 71 1019.0
20260505233004 22 0 4.8 12.9 0.00 0.00 0.00 69 1019.0
20260505232003 21 13 4.8 19.3 0.00 0.00 0.00 69 1018.9
20260505231004 21 11 4.8 22.5 0.00 0.00 0.00 69 1018.8
20260505230004 22 6 6.4 16.1 0.00 0.00 0.00 68 1018.7
20260505225003 23 26 3.2 9.7 0.00 0.00 0.00 67 1018.8
20260505224004 23 173 3.2 9.7 0.00 0.00 0.00 66 1018.8
20260505223006 23 0 1.6 9.7 0.00 0.00 0.00 64 1018.8
20260505222005 24 60 0.0 3.2 0.00 0.00 0.00 66 1018.8
20260505221005 23 73 0.0 1.6 0.00 0.00 0.00 74 1018.9
20260505220005 21 0 0.0 1.6 0.00 0.00 0.00 79 1018.9
20260505215005 20 90 0.0 0.0 0.00 0.00 0.00 82 1019.1
20260505214005 20 89 0.0 0.0 0.00 0.00 0.00 87 1019.1
20260505213004 18 45 0.0 0.0 0.00 0.00 0.00 90 1019.3
20260505212004 17 47 0.0 1.6 0.00 0.00 0.00 89 1019.3
20260505211003 17 90 0.0 1.6 0.00 0.00 0.00 89 1019.4
20260505210003 17 180 0.0 0.0 0.00 0.00 0.00 89 1019.3
20260505205004 17 180 0.0 1.6 0.00 0.00 0.00 90 1019.3
20260505204004 17 0 0.0 1.6 0.00 0.00 0.00 91 1019.3
20260505203003 16 0 0.0 1.6 0.00 0.00 0.00 92 1019.4
20260505202004 16 180 0.0 1.6 0.00 0.00 0.00 92 1019.2
20260505201004 16 0 0.0 0.0 0.00 0.00 0.00 92 1019.2
20260505200004 16 90 0.0 1.6 0.00 0.00 0.00 92 1019.2
20260505195004 15 0 0.0 1.6 0.00 0.00 0.00 93 1019.0
20260505194004 15 93 0.0 1.6 0.00 0.00 0.00 93 1019.2
20260505193003 15 225 0.0 1.6 0.00 0.00 0.00 93 1019.1
20260505192004 15 135 0.0 0.0 0.00 0.00 0.00 93 1019.0
20260505191004 15 225 0.0 1.6 0.00 0.00 0.00 92 1018.9
20260505190004 15 180 1.6 1.6 0.00 0.00 0.00 92 1018.9
20260505185004 15 225 0.0 1.6 0.00 0.00 0.00 92 1018.9
20260505184004 15 180 0.0 1.6 0.00 0.00 0.00 92 1018.9
20260505183004 15 36 0.0 4.8 0.00 0.00 0.00 92 1018.9
20260505182004 15 0 0.0 1.6 0.00 0.00 0.00 92 1019.0
20260505181004 15 135 0.0 0.0 0.00 0.00 0.00 92 1018.9
20260505180004 15 135 0.0 0.0 0.00 0.00 0.00 92 1018.9
20260505175004 15 180 0.0 0.0 0.00 0.00 0.00 92 1019.1
20260505174004 15 144 0.0 0.0 0.00 0.00 0.00 92 1019.0
20260505173003 15 0 0.0 0.0 0.00 0.00 0.00 92 1018.9
20260505172004 15 104 0.0 0.0 0.00 0.00 0.00 92 1019.1
20260505171004 15 182 0.0 0.0 0.00 0.00 0.00 92 1019.0
20260505170004 15 225 0.0 0.0 0.00 0.00 0.00 92 1019.0
20260505165004 15 227 0.0 0.0 0.00 0.00 0.00 92 1019.0
20260505164004 15 22 0.0 0.0 0.00 0.00 0.00 92 1019.2
20260505163004 15 90 0.0 0.0 0.00 0.00 0.00 92 1019.1
20260505162003 15 180 0.0 0.0 0.00 0.00 0.00 92 1019.2
20260505161004 15 45 0.0 0.0 0.00 0.00 0.00 92 1019.2
20260505153004 15 45 0.0 0.0 0.00 0.00 0.00 92 1019.4
20260505152004 15 330 0.0 1.6 0.00 0.00 0.00 92 1019.4
20260505151004 15 135 0.0 0.0 0.00 0.00 0.00 92 1019.5
20260505125004 15 90 0.0 1.6 0.00 0.00 0.00 92 1020.8
20260505124004 15 260 0.0 0.0 0.00 0.00 0.00 91 1020.8
20260505123004 15 45 0.0 0.0 0.00 0.00 0.00 91 1020.8
20260505122004 15 45 0.0 1.6 0.00 0.00 0.00 91 1020.8
20260505121004 15 0 0.0 0.0 0.00 0.00 0.00 91 1020.7
20260505120005 15 0 0.0 3.2 0.00 0.00 0.00 90 1020.8
20260505115004 15 226 0.0 0.0 0.00 0.00 0.00 90 1020.7
20260505114004 15 225 0.0 0.0 0.00 0.00 0.00 90 1020.7
20260505113004 15 0 0.0 1.6 0.00 0.00 0.00 89 1020.9
20260505112004 16 0 0.0 1.6 0.00 0.00 0.00 87 1020.9
20260505111004 16 0 0.0 0.0 0.00 0.00 0.00 87 1021.0
20260505102004 16 135 0.0 0.0 0.00 0.00 0.00 87 1021.4
20260505101003 16 110 0.0 1.6 0.00 0.00 0.00 87 1021.2
20260505100004 16 45 0.0 1.6 0.00 0.00 0.00 87 1021.1
20260505095004 16 135 0.0 0.0 0.00 0.00 0.00 87 1021.3
20260505094004 16 135 0.0 1.6 0.00 0.00 0.00 88 1021.1
20260505093004 16 45 0.0 1.6 0.00 0.00 0.00 89 1021.3
20260505092004 16 6 0.0 1.6 0.00 0.00 0.00 90 1021.3
20260505091004 15 90 0.0 1.6 0.00 0.00 0.00 90 1021.1
20260505090004 15 131 0.0 1.6 0.00 0.00 0.00 90 1021.1
20260505085004 15 135 0.0 0.0 0.00 0.00 0.00 90 1021.1
20260505084004 15 135 0.0 1.6 0.00 0.00 0.00 89 1021.2
20260505083004 16 352 0.0 1.6 0.00 0.00 0.00 89 1021.3
20260505082004 16 93 0.0 3.2 0.00 0.00 0.00 88 1021.1
20260505081005 16 45 0.0 0.0 0.00 0.00 0.00 87 1021.3
20260505080004 16 180 0.0 0.0 0.00 0.00 0.00 86 1021.3
20260505075004 16 180 0.0 0.0 0.00 0.00 0.00 86 1021.3
20260505074003 16 180 0.0 1.6 0.00 0.00 0.00 86 1021.3
20260505073004 16 0 0.0 0.0 0.00 0.00 0.00 87 1021.3
20260505072004 15 180 0.0 0.0 0.00 0.00 0.00 87 1021.4
20260505071003 15 180 0.0 0.0 0.00 0.00 0.00 87 1021.3
20260505070004 15 90 0.0 1.6 0.00 0.00 0.00 85 1021.2
20260505065004 16 90 0.0 1.6 0.00 0.00 0.00 84 1021.3
20260505064003 16 90 0.0 0.0 0.00 0.00 0.00 83 1021.3
20260505063004 16 135 0.0 0.0 0.00 0.00 0.00 83 1021.2
20260505062004 16 135 0.0 0.0 0.00 0.00 0.00 83 1021.2
20260505061004 16 90 0.0 0.0 0.00 0.00 0.00 83 1021.4
20260505060004 16 90 0.0 0.0 0.00 0.00 0.00 83 1021.3
20260505055003 16 90 0.0 0.0 0.00 0.00 0.00 83 1021.3
20260505054003 16 90 0.0 1.6 0.00 0.00 0.00 81 1021.3